Tampico, Mexico

10:33 PM CST on November 23, 2017 (GMT -0600)
Gen Francisco Javier Mina

Weather History for MMTM - January, 2013

Change the Weather History Date:

Sunday, January 13, 2013

  Actual Average Record
Temperature  
Mean Temperature 68 °F -  
Max Temperature 77 °F 73 °F 85 °F (2014)
Min Temperature 59 °F 57 °F 46 °F (1997)
Cooling Degree Days 3    
Growing Degree Days 18 (Base 50)    
Moisture  
Dew Point 56 °F    
Average Humidity 63    
Maximum Humidity 97    
Minimum Humidity 29    
Precipitation  
Precipitation 0.00 in 0.02 in - ()
Sea Level Pressure  
Sea Level Pressure 29.92 in    
Wind  
Wind Speed 10 mph ()    
Max Wind Speed 23 mph    
Max Gust Speed 34 mph    
Visibility 5.8 miles    
Events Fog    
Averages and records for this station are not official NWS values.
T = Trace of Precipitation, MM = Missing Value Source: Averaged Metar Reports

Daily Weather History Graph

Daily Weather History Graph

Search for Another Location

Airport or City:

Trip Planner

Search our weather history database for the weather conditions in past years. The results will help you decide how hot, cold, wet, or windy it might be!

Date:

Astronomy

Jan. 13, 2013 Rise Set
Actual Time 7:13 AM CST 6:07 PM CST
Civil Twilight 6:49 AM CST 6:31 PM CST
Nautical Twilight 6:21 AM CST 6:59 PM CST
Astronomical Twilight 5:54 AM CST 7:26 PM CST
Moon 8:32 AM CST (1/13) 8:24 PM CST (1/13)
Length of Visible Light 11h 42m
Length of Day
10h 54m
Waxing Crescent, 5% of the Moon is Illuminated
Jan 13
Waxing Crescent
Jan 18
First Quarter
Jan 26
Full
Feb 3
Last Quarter
Feb 10
New

Hourly Weather History & Observations

Time (CST) Temp. Dew Point Humidity Pressure Visibility Wind Dir Wind Speed Gust Speed Precip Events Conditions
2:40 AM 71 °F 70 °F 96% 29.78 in 6 mi SSE 2.2 mph - -   Scattered Clouds
5:40 AM 72 °F 71 °F 97% 29.78 in 6 mi SSE 4.5 mph - -   Partly Cloudy
5:58 AM 71.6 °F 69.8 °F 94% 29.77 in 3.0 mi South 8.1 mph - N/A   Clear
6:52 AM 71.6 °F 69.8 °F 94% 29.78 in 0.1 mi WSW 6.9 mph - N/A Fog Fog
7:46 AM 71.6 °F 69.8 °F 94% 29.82 in 0.8 mi WSW 4.6 mph - N/A   Mist
8:40 AM 60 °F 43 °F 42% 30.06 in 6 mi NNE 6.7 mph - -   Mostly Cloudy
8:50 AM 73.4 °F 71.6 °F 94% 29.87 in 2.0 mi NW 12.7 mph - N/A   Mostly Cloudy
9:47 AM 73.4 °F 69.8 °F 88% 29.89 in 1.5 mi NNW 13.8 mph - N/A   Mostly Cloudy
10:45 AM 71.6 °F 66.2 °F 83% 29.90 in 2.0 mi NNE 23.0 mph 34.5 mph N/A   Haze
11:40 AM 72 °F 64 °F 68% 29.94 in 11 mi NNE 13.4 mph - -   Haze
11:41 AM 69.8 °F 60.8 °F 73% 29.91 in 4.0 mi NNE 23.0 mph 34.5 mph N/A   Mostly Cloudy
12:43 PM 71.6 °F 59.0 °F 64% 29.90 in 6.0 mi NNE 23.0 mph 34.5 mph N/A   Mostly Cloudy
1:49 PM 71.6 °F 55.4 °F 57% 29.89 in 6.0 mi North 17.3 mph - N/A   Mostly Cloudy
2:40 PM 76 °F 55 °F 38% 29.92 in 15 mi NNE 15.7 mph - -   Mostly Cloudy
2:45 PM 71.6 °F 55.4 °F 57% 29.89 in 6.0 mi NE 18.4 mph - N/A   Mostly Cloudy
3:49 PM 69.8 °F 55.4 °F 60% 29.91 in 6.0 mi North 15.0 mph 28.8 mph N/A   Mostly Cloudy
4:41 PM 69.8 °F 53.6 °F 56% 29.93 in 6.0 mi North 13.8 mph - N/A   Mostly Cloudy
5:35 PM 69 °F 54 °F 48% 29.99 in 14 mi NNE 13.4 mph - -   Mostly Cloudy
5:45 PM 68.0 °F 51.8 °F 56% 29.91 in 6.0 mi North 13.8 mph - N/A   Overcast
6:40 PM 68.0 °F 50.0 °F 52% 29.98 in 6.0 mi NE 20.7 mph - N/A   Overcast
7:40 PM 68.0 °F 46.4 °F 46% 30.00 in 6.0 mi NNE 11.5 mph 23.0 mph N/A   Overcast
8:40 PM 67 °F 43 °F 31% 30.05 in 6 mi NNE 15.7 mph - -   Mostly Cloudy
8:49 PM 66.2 °F 42.8 °F 43% 30.02 in 6.0 mi North 11.5 mph 23.0 mph N/A   Overcast
9:43 PM 64.4 °F 41.0 °F 42% 30.03 in 6.0 mi NE 13.8 mph - N/A   Overcast
10:50 PM 64.4 °F 41.0 °F 42% 30.04 in 7.0 mi NNE 13.8 mph - N/A   Overcast
11:40 PM 63 °F 38 °F 29% 30.08 in 6 mi NNE 8.9 mph - -   Mostly Cloudy